[[{"header":{"parameterUnit":"m.s-1","parameterCategory":1,"la1":30.2991,"la2":30.254,"lo1":-89.0895,"lo2":-89.0444,"dy":0.0017,"dx":0.0017,"nx":28,"ny":28,"refTime":"2025-02-01T03:00:00:Z","depth":0,"parameterNumber":2,"parameterNumberName":"U-component_of_WINDS"},"data":[0,0,0,0,0,0,0,0,0,0,0,0,0,0,0,0,0,0,0,0,0,0,0,0,0,0,0,0,0,0,0,0,0,0,0,0,0,0,0,0,0,0,0,0,0,0,0,0,0,0,0,0,0,0,0,0,0,0,3.299,3.2989,0,3.2834,3.2832,3.283,3.2817,3.2819,3.2821,3.2822,3.2662,3.2656,3.2651,0,0,0,0,0,0,0,0,0,0,0,0,0,3.3284,3.3278,3.2991,3.2989,3.2987,3.2834,3.2832,3.283,3.2817,3.2819,3.2821,3.2823,3.2664,3.2657,3.265,0,0,0,0,0,0,0,0,0,0,0,0,0,3.3145,3.3277,3.2991,3.2962,3.2958,3.2834,3.2832,3.2829,3.2817,3.2819,3.2822,3.2824,3.2666,3.2658,3.2649,3.2544,0,0,3.2622,3.2619,0,0,0,0,0,0,0,0,3.3153,3.3134,3.2968,3.2964,3.2959,3.2848,3.2877,3.2734,3.2816,3.287,3.2823,3.2825,3.2722,3.2709,3.2674,3.2536,3.253,3.2622,3.2616,3.2612,3.261,0,0,0,0,0,0,0,3.3162,3.3141,3.2928,3.2966,3.296,3.2959,3.2942,3.2849,3.2784,3.2866,3.2864,3.2846,3.272,3.2682,3.267,3.2527,3.2622,3.2614,3.2609,3.2605,3.2303,3.2301,0,0,0,0,0,0,3.3177,3.3149,3.2933,3.2924,3.3064,3.2951,3.2932,3.2881,3.2785,3.2772,3.2844,3.2846,3.2696,3.268,3.2664,3.2538,3.2613,3.2604,3.2599,3.2306,3.2303,3.23,0,0,0,0,0,0,3.3183,3.3158,3.294,3.3036,3.3008,3.2943,3.2886,3.2876,3.2839,3.2768,3.2757,3.2817,3.2697,3.2676,3.2576,3.2532,3.26,3.2592,3.2309,3.2305,3.2301,3.2284,0,0,0,0,0,0,3.3192,3.316,3.3118,3.3035,3.3003,3.2852,3.2883,3.2871,3.2824,3.2825,3.274,3.2729,3.2698,3.2589,3.2567,3.2522,3.2586,3.2313,3.2307,3.2302,3.2288,3.2279,3.2272,0,0,0,0,0,3.3202,3.3118,3.3116,3.309,3.2948,3.2849,3.2831,3.2797,3.282,3.2778,3.2734,3.2731,3.2541,3.2578,3.2554,3.2505,3.2315,3.2309,3.2303,3.2291,3.2281,3.2272,0,0,0,0,0,0,3.3195,3.3106,3.3103,3.2988,3.2927,3.2847,3.2792,3.2786,3.2717,3.272,3.2682,3.2663,3.2565,3.2525,3.2568,3.2402,3.2431,3.242,3.2431,3.242,3.2413,3.2424,3.2578,0,0,0,0,0,3.318,3.3106,3.3033,3.2939,3.2909,3.2857,3.2812,3.2792,3.2727,3.27,3.2648,3.2586,3.2513,3.2464,3.2393,3.2283,3.2267,3.2238,3.2231,3.2225,3.2215,3.2159,3.2147,3.2279,3.2279,3.2279,0,0,3.3148,3.3091,3.3046,3.2937,3.2886,3.2813,3.2834,3.2754,3.27,3.2688,3.259,3.2551,3.2479,3.2374,3.2326,3.2338,3.2176,3.2217,3.2213,3.2206,3.2152,3.2139,3.2128,3.2275,3.2276,3.2276,0,0,3.3053,3.3001,3.2919,3.287,3.2795,3.2762,3.2743,3.2666,3.264,3.2542,3.2533,3.247,3.2343,3.2293,3.2251,3.2147,3.2143,3.2125,3.2083,3.203,3.2019,3.201,3.1975,3.1963,3.2115,3.2115,3.2115,0,3.3022,3.291,3.2878,3.28,3.2754,3.2743,3.2662,3.2616,3.2521,3.2491,3.2507,3.2352,3.2302,3.2189,3.2164,3.213,3.211,3.2132,3.2023,3.2014,3.2004,3.1971,3.1958,3.2114,3.2114,3.2114,3.2114,0,3.2878,3.2801,3.2745,3.2656,3.2604,3.2525,3.2484,3.2436,3.2423,3.2389,3.2293,3.2234,3.2153,3.2125,3.211,3.2011,3.2022,3.2031,3.2059,3.1991,3.1959,3.1945,3.2111,3.2112,3.2112,3.2113,0,0,3.2767,3.2668,3.2647,3.261,3.253,3.247,3.2394,3.2316,3.2277,3.2214,3.215,3.2047,3.2058,3.2011,3.1991,3.1944,3.187,3.196,3.1958,3.1947,3.1762,3.1755,3.174,3.1868,3.1865,3.1863,3.1768,0,3.2664,3.2525,3.2498,3.2379,3.231,3.2303,3.2236,3.2182,3.2151,3.2089,3.2055,3.1984,3.2001,3.1974,3.1927,3.1888,3.1832,3.1895,3.181,3.1807,3.1827,3.1723,3.1714,3.1627,3.1755,3.1753,3.1751,0,3.2522,3.2459,3.2333,3.2269,3.2239,3.2179,3.2109,3.205,3.1991,3.1972,3.1923,3.1911,3.1834,3.1869,3.1765,3.1809,3.1773,3.175,3.1746,3.1736,3.1774,3.1711,3.1598,3.1585,3.1731,3.1733,3.1734,0,3.2457,3.234,3.2251,3.2219,3.2141,3.21,3.2066,3.2009,3.1966,3.1906,3.1879,3.181,3.1772,3.1721,3.1692,3.1719,3.1592,3.1622,3.1575,3.1576,3.1547,3.1549,3.1427,3.1524,3.1525,3.1525,3.1525,0,3.2343,3.2267,3.2222,3.2166,3.2083,3.2056,3.1974,3.1941,3.1892,3.1833,3.1823,3.1768,3.1734,3.1675,3.1652,3.1572,3.1555,3.1539,3.1534,3.1539,3.1541,3.1514,3.152,3.1521,3.1522,3.1523,3.1523,0,3.2254,3.222,3.2123,3.206,3.2042,3.1984,3.193,3.1879,3.1851,3.1776,3.1758,3.1713,3.1644,3.1611,3.1525,3.151,3.142,3.1418,3.144,3.1438,3.1393,3.1398,3.1249,3.123,3.134,3.1339,3.1338,0,3.2183,3.2125,3.2057,3.2017,3.1983,3.1918,3.1876,3.1849,3.1806,3.1738,3.1696,3.1627,3.157,3.1461,3.1422,3.1358,3.1355,3.1308,3.1345,3.1355,3.1356,3.136,3.1356,3.13,3.1299,3.1298,3.1298,0,3.2061,3.205,3.1989,3.1924,3.1874,3.1821,3.177,3.1738,3.1704,3.1657,3.1587,3.1544,3.1459,3.1392,3.1326,3.1294,3.1291,3.1287,3.1273,3.1278,3.1293,3.1286,3.1422,3.129,3.1291,3.1291,3.1292,3.1292,3.1979,3.193,3.1876,3.181,3.177,3.1724,3.1674,3.1642,3.1583,3.1512,3.1501,3.1428,3.1377,3.1289,3.1255,3.12,3.121,3.1189,3.1184,3.1179,3.1178,3.1304,3.1187,3.1188,3.1188,3.1188,3.1188,0,3.1859,3.1826,3.1766,3.1696,3.1646,3.1651,3.1596,3.1554,3.149,3.1443,3.1389,3.1312,3.1249,3.1208,3.1145,3.1109,3.1107,3.1094,3.1096,3.1089,3.1171,3.119,3.1097,3.1097,3.1097,3.1097,3.1097,3.1097,3.179,3.1708,3.1691,3.159,3.1558,3.1487,3.1456,3.1415,3.1378,3.1293,3.1241,3.1216,3.1172,3.1108,3.1052,3.1042,3.102,3.1006,3.0997,3.1073,3.1083,3.1092,3.1109,3.1001,3.1001,3.092,3.0919,3.0918]},{"header":{"parameterUnit":"m.s-1","parameterCategory":1,"la1":30.2991,"la2":30.254,"lo1":-89.0895,"lo2":-89.0444,"dy":0.0017,"dx":0.0017,"nx":28,"ny":28,"refTime":"2025-02-01T03:00:00:Z","depth":0,"parameterNumber":3,"parameterNumberName":"V-component_of_WINDS"},"data":[0,0,0,0,0,0,0,0,0,0,0,0,0,0,0,0,0,0,0,0,0,0,0,0,0,0,0,0,0,0,0,0,0,0,0,0,0,0,0,0,0,0,0,0,0,0,0,0,0,0,0,0,0,0,0,0,0,0,2.0921,2.0922,0,2.1046,2.1047,2.1048,2.1088,2.1087,2.1087,2.1086,2.1211,2.1214,2.1218,0,0,0,0,0,0,0,0,0,0,0,0,0,2.0712,2.0716,2.0921,2.0922,2.0924,2.1045,2.1047,2.1049,2.1088,2.1087,2.1087,2.1086,2.1209,2.1214,2.1219,0,0,0,0,0,0,0,0,0,0,0,0,0,2.0816,2.0717,2.0921,2.0958,2.0963,2.1045,2.1047,2.1049,2.1088,2.1087,2.1087,2.1086,2.1208,2.1213,2.1219,2.1272,0,0,2.1237,2.1239,0,0,0,0,0,0,0,0,2.081,2.0824,2.0951,2.0956,2.0961,2.105,2.1019,2.1124,2.1089,2.1041,2.1086,2.1085,2.1158,2.1168,2.1193,2.1277,2.1283,2.1237,2.1241,2.1243,2.1245,0,0,0,0,0,0,0,2.0803,2.0819,2.097,2.0953,2.0959,2.0968,2.0981,2.1039,2.1102,2.1045,2.1048,2.1062,2.116,2.1187,2.1196,2.1285,2.1237,2.1242,2.1246,2.1248,2.1416,2.1417,0,0,0,0,0,0,2.079,2.0813,2.0966,2.0974,2.0882,2.0972,2.0987,2.1023,2.1102,2.1113,2.1063,2.1064,2.1178,2.1189,2.12,2.1266,2.1243,2.1249,2.1252,2.1415,2.1416,2.1417,0,0,0,0,0,0,2.0786,2.0804,2.0961,2.0894,2.0915,2.0977,2.1016,2.1025,2.1052,2.1116,2.1127,2.1079,2.1178,2.1192,2.1253,2.1271,2.1251,2.1256,2.1413,2.1415,2.1416,2.1397,0,0,0,0,0,0,2.0779,2.0802,2.0823,2.0894,2.0918,2.1013,2.1017,2.1029,2.1063,2.1065,2.1134,2.1144,2.1178,2.1244,2.1259,2.1278,2.1261,2.1412,2.1414,2.1416,2.1396,2.1398,2.1399,0,0,0,0,0,2.0772,2.0813,2.0824,2.0843,2.0947,2.1014,2.1028,2.1067,2.1064,2.1085,2.1125,2.1142,2.1266,2.125,2.1267,2.1288,2.1411,2.1414,2.1416,2.1396,2.1398,2.1399,0,0,0,0,0,0,2.0742,2.0823,2.0837,2.0902,2.0951,2.1021,2.1049,2.1068,2.1118,2.1117,2.1163,2.1178,2.1235,2.1268,2.1248,2.1342,2.1339,2.1345,2.1318,2.1321,2.1322,2.1312,2.1266,0,0,0,0,0,2.0743,2.0792,2.086,2.0911,2.0935,2.0987,2.1018,2.1044,2.1096,2.1117,2.1162,2.121,2.126,2.1292,2.1342,2.1401,2.1416,2.1424,2.1425,2.1425,2.143,2.1462,2.1465,2.1424,2.1424,2.1424,0,0,2.0745,2.0796,2.0824,2.0906,2.0947,2.0995,2.1005,2.1056,2.1091,2.1124,2.1185,2.1219,2.1276,2.1336,2.1364,2.1365,2.1444,2.1428,2.1428,2.1433,2.1464,2.1468,2.1471,2.1426,2.1426,2.1425,0,0,2.0774,2.0818,2.0865,2.0905,2.0967,2.1002,2.1013,2.108,2.1104,2.1166,2.119,2.1232,2.1318,2.1357,2.1388,2.143,2.1446,2.1444,2.1451,2.1481,2.1484,2.1487,2.1501,2.1505,2.1448,2.1448,2.1448,0,2.0769,2.0845,2.0886,2.0936,2.097,2.1002,2.1049,2.1086,2.116,2.1182,2.1182,2.1288,2.1329,2.1398,2.1408,2.1432,2.1445,2.1437,2.1481,2.1484,2.1488,2.1501,2.1506,2.1448,2.1448,2.1448,2.1448,0,2.0835,2.0886,2.0916,2.0988,2.1025,2.1073,2.112,2.1153,2.1174,2.1208,2.1269,2.1319,2.1378,2.1396,2.1418,2.1467,2.1465,2.1472,2.1471,2.149,2.1503,2.1509,2.1447,2.1447,2.1447,2.1447,0,0,2.0849,2.0943,2.0953,2.0985,2.1055,2.1094,2.1142,2.1201,2.1227,2.1277,2.1317,2.1388,2.1394,2.1429,2.1455,2.1482,2.1509,2.1485,2.1487,2.1487,2.1564,2.1559,2.1564,2.152,2.1521,2.1522,2.1559,0,2.0887,2.0976,2.1013,2.1084,2.1131,2.1161,2.1202,2.1248,2.1281,2.1324,2.1359,2.1408,2.1413,2.1434,2.1462,2.15,2.1525,2.1498,2.1556,2.1558,2.1541,2.1571,2.1566,2.1598,2.1565,2.1566,2.1566,0,2.0943,2.0993,2.1069,2.1131,2.1152,2.1189,2.1245,2.1286,2.1338,2.1359,2.1398,2.1422,2.1471,2.1466,2.1533,2.1513,2.1539,2.1561,2.1563,2.157,2.1563,2.1578,2.161,2.1614,2.1575,2.1574,2.1574,0,2.0945,2.1031,2.1087,2.1114,2.1188,2.1213,2.1245,2.1296,2.1329,2.1377,2.1398,2.145,2.1479,2.1518,2.1555,2.1548,2.1618,2.1616,2.1636,2.1635,2.1649,2.1648,2.1685,2.1667,2.1666,2.1666,2.1666,0,2.0982,2.1027,2.1089,2.1123,2.1173,2.1215,2.1263,2.1296,2.1341,2.1381,2.141,2.1446,2.1493,2.1535,2.1564,2.1614,2.1627,2.1644,2.1651,2.1642,2.1639,2.1659,2.1658,2.1668,2.1667,2.1667,2.1667,0,2.0993,2.1037,2.1099,2.1164,2.1182,2.1216,2.1271,2.1304,2.1337,2.1387,2.1401,2.1452,2.1503,2.1544,2.1609,2.1629,2.1681,2.1689,2.1664,2.1667,2.1684,2.1682,2.1735,2.1744,2.1719,2.172,2.172,0,2.1014,2.1049,2.1118,2.1147,2.1179,2.1226,2.1259,2.1301,2.1333,2.1394,2.1419,2.1472,2.1517,2.1595,2.1637,2.1687,2.1696,2.1711,2.1704,2.1692,2.1695,2.1693,2.1696,2.1712,2.1712,2.1712,2.1712,0,2.1046,2.1066,2.1113,2.1167,2.1206,2.1251,2.1296,2.1317,2.1367,2.1402,2.1454,2.1488,2.1555,2.1606,2.166,2.1691,2.1709,2.1714,2.1721,2.1712,2.1695,2.1703,2.1665,2.1713,2.1713,2.1713,2.1713,2.1713,2.1063,2.1094,2.1148,2.1199,2.1237,2.1278,2.1312,2.1349,2.1394,2.1453,2.1474,2.1527,2.1576,2.165,2.1681,2.1722,2.1723,2.1734,2.1736,2.1738,2.1736,2.1688,2.1732,2.1732,2.1732,2.1732,2.1732,0,2.1095,2.1131,2.1178,2.124,2.1279,2.1294,2.1344,2.1375,2.1422,2.1467,2.151,2.1569,2.1618,2.1663,2.1714,2.1738,2.1747,2.175,2.1748,2.1754,2.1732,2.1721,2.1741,2.1741,2.1741,2.1741,2.1741,2.1741,2.1117,2.1172,2.1197,2.127,2.1304,2.1358,2.1385,2.1422,2.1458,2.1522,2.1564,2.1594,2.1638,2.1692,2.1736,2.1748,2.1765,2.1765,2.1779,2.1758,2.1756,2.1755,2.1744,2.1769,2.1769,2.1798,2.1798,2.1798]}]]